NSIGHT (42726 NORAD) Tracking and Keplerian Element Data

This shows tracking and keplerian element data for the satellite.

Feedback or suggestion? Click here.




ElementValue
Catalog42726
NameNSIGHT
Epoch Orbit13236
Epoch Day262.09092043
Epoch Year2019
RAAN195.0041
Inclination51.6358
Eccentricity0.0004922
Argument of Perigee151.4577
Mean Anonmoly208.6693
Mean Motion15.74770436
Decay Rate0.00025986
L11 42726U 98067MF 19262.09092043 .00025986 00000-0 17634-3 0 9992
L22 42726 51.6358 195.0041 0004922 151.4577 208.6693 15.74770436132361

Live tracking and technical data element details for NSIGHT (NORAD 42726). NSIGHT can be tracked NOW for your location showing map with azimuth and elevation plus other details from your city location.

Track the satellite on the map from your city or location and see movement details for azimuth, elevation, latitude, longitude, range, height, and movement on the map or in text.







IsCatalogInMostPopularTable: catalog: 42726, numindb: 299
Update: records affected: 1



GetName: 42726 NSIGHT

Hit Count: updated at: Thu, 19 Sep 2019 17:51:23 GMT